![]() |
EMODnet Physics ERDDAP
Easier access to scientific data |
log in|
Brought to you by EMODnet Physics |
| Dataset Title: | NDBC - Collection of dew point temperature (DEWT) TimeSeries - IN SITU MultiPointTimeSeriesObservation
|
| Institution: | NDBC (Dataset ID: TS_DEWT_NDBC) |
| Information: | Summary
| License
| FGDC
| ISO 19115
| Metadata
| Background
| Subset
| Data Access Form
| Make a graph
|
| Name | Last modified | Size | Description | |
|---|---|---|---|---|
| Parent Directory | - | - | ||
| GDIL1_TS_DEWT_011990.nc | 31-Dec-2024 00:10 | 450066 | ||
| GDIL1_TS_DEWT_011992.nc | 31-Dec-2024 00:13 | 450669 | ||
| GDIL1_TS_DEWT_011993.nc | 31-Dec-2024 00:14 | 450400 | ||
| GDIL1_TS_DEWT_011995.nc | 31-Dec-2024 00:18 | 451311 | ||
| GDIL1_TS_DEWT_011996.nc | 31-Dec-2024 00:19 | 451328 | ||
| GDIL1_TS_DEWT_011997.nc | 31-Dec-2024 00:21 | 450745 | ||
| GDIL1_TS_DEWT_011998.nc | 31-Dec-2024 00:23 | 451032 | ||
| GDIL1_TS_DEWT_011999.nc | 31-Dec-2024 00:24 | 450711 | ||
| GDIL1_TS_DEWT_012000.nc | 31-Dec-2024 00:26 | 450504 | ||
| GDIL1_TS_DEWT_012001.nc | 31-Dec-2024 00:28 | 449736 | ||
| GDIL1_TS_DEWT_012002.nc | 31-Dec-2024 00:30 | 450461 | ||
| GDIL1_TS_DEWT_012003.nc | 31-Dec-2024 00:31 | 450040 | ||
| GDIL1_TS_DEWT_012004.nc | 31-Dec-2024 00:33 | 450815 | ||
| GDIL1_TS_DEWT_012005.nc | 31-Dec-2024 00:35 | 450563 | ||
| GDIL1_TS_DEWT_021992.nc | 31-Dec-2024 00:13 | 451027 | ||
| GDIL1_TS_DEWT_021993.nc | 31-Dec-2024 00:15 | 449789 | ||
| GDIL1_TS_DEWT_021995.nc | 31-Dec-2024 00:18 | 450238 | ||
| GDIL1_TS_DEWT_021996.nc | 31-Dec-2024 00:19 | 450710 | ||
| GDIL1_TS_DEWT_021997.nc | 31-Dec-2024 00:21 | 450433 | ||
| GDIL1_TS_DEWT_021998.nc | 31-Dec-2024 00:23 | 449421 | ||
| GDIL1_TS_DEWT_021999.nc | 31-Dec-2024 00:24 | 449964 | ||
| GDIL1_TS_DEWT_022000.nc | 31-Dec-2024 00:26 | 449062 | ||
| GDIL1_TS_DEWT_022001.nc | 31-Dec-2024 00:28 | 443405 | ||
| GDIL1_TS_DEWT_022002.nc | 31-Dec-2024 00:30 | 450236 | ||
| GDIL1_TS_DEWT_022003.nc | 31-Dec-2024 00:32 | 450171 | ||
| GDIL1_TS_DEWT_022004.nc | 31-Dec-2024 00:33 | 449958 | ||
| GDIL1_TS_DEWT_022005.nc | 31-Dec-2024 00:35 | 450473 | ||
| GDIL1_TS_DEWT_031993.nc | 31-Dec-2024 00:15 | 449473 | ||
| GDIL1_TS_DEWT_031995.nc | 31-Dec-2024 00:18 | 450014 | ||
| GDIL1_TS_DEWT_031996.nc | 31-Dec-2024 00:20 | 450246 | ||
| GDIL1_TS_DEWT_031997.nc | 31-Dec-2024 00:21 | 449954 | ||
| GDIL1_TS_DEWT_031998.nc | 31-Dec-2024 00:23 | 449959 | ||
| GDIL1_TS_DEWT_031999.nc | 31-Dec-2024 00:25 | 449715 | ||
| GDIL1_TS_DEWT_032000.nc | 31-Dec-2024 00:26 | 450958 | ||
| GDIL1_TS_DEWT_032001.nc | 31-Dec-2024 00:28 | 434610 | ||
| GDIL1_TS_DEWT_032002.nc | 31-Dec-2024 00:30 | 450367 | ||
| GDIL1_TS_DEWT_032003.nc | 31-Dec-2024 00:32 | 450515 | ||
| GDIL1_TS_DEWT_032004.nc | 31-Dec-2024 00:33 | 450664 | ||
| GDIL1_TS_DEWT_032005.nc | 31-Dec-2024 00:35 | 449572 | ||
| GDIL1_TS_DEWT_041995.nc | 31-Dec-2024 00:18 | 449628 | ||
| GDIL1_TS_DEWT_041996.nc | 31-Dec-2024 00:20 | 449964 | ||
| GDIL1_TS_DEWT_041997.nc | 31-Dec-2024 00:21 | 451112 | ||
| GDIL1_TS_DEWT_041998.nc | 31-Dec-2024 00:23 | 450350 | ||
| GDIL1_TS_DEWT_041999.nc | 31-Dec-2024 00:25 | 450144 | ||
| GDIL1_TS_DEWT_042000.nc | 31-Dec-2024 00:26 | 450103 | ||
| GDIL1_TS_DEWT_042001.nc | 31-Dec-2024 00:28 | 451596 | ||
| GDIL1_TS_DEWT_042002.nc | 31-Dec-2024 00:30 | 451075 | ||
| GDIL1_TS_DEWT_042003.nc | 31-Dec-2024 00:32 | 449498 | ||
| GDIL1_TS_DEWT_042004.nc | 31-Dec-2024 00:34 | 451388 | ||
| GDIL1_TS_DEWT_042005.nc | 31-Dec-2024 00:35 | 450458 | ||
| GDIL1_TS_DEWT_051989.nc | 31-Dec-2024 00:09 | 451610 | ||
| GDIL1_TS_DEWT_051995.nc | 31-Dec-2024 00:18 | 429765 | ||
| GDIL1_TS_DEWT_051996.nc | 31-Dec-2024 00:20 | 429626 | ||
| GDIL1_TS_DEWT_051997.nc | 31-Dec-2024 00:22 | 429838 | ||
| GDIL1_TS_DEWT_051998.nc | 31-Dec-2024 00:23 | 430075 | ||
| GDIL1_TS_DEWT_051999.nc | 31-Dec-2024 00:25 | 429951 | ||
| GDIL1_TS_DEWT_052000.nc | 31-Dec-2024 00:27 | 430017 | ||
| GDIL1_TS_DEWT_052001.nc | 31-Dec-2024 00:28 | 428552 | ||
| GDIL1_TS_DEWT_052002.nc | 31-Dec-2024 00:30 | 425561 | ||
| GDIL1_TS_DEWT_052003.nc | 31-Dec-2024 00:32 | 594957 | ||
| GDIL1_TS_DEWT_052004.nc | 31-Dec-2024 00:34 | 1142979 | ||
| GDIL1_TS_DEWT_052005.nc | 31-Dec-2024 00:35 | 423954 | ||
| GDIL1_TS_DEWT_061989.nc | 31-Dec-2024 00:09 | 1142718 | ||
| GDIL1_TS_DEWT_061991.nc | 31-Dec-2024 00:12 | 1143524 | ||
| GDIL1_TS_DEWT_061995.nc | 31-Dec-2024 00:18 | 1143687 | ||
| GDIL1_TS_DEWT_061996.nc | 31-Dec-2024 00:20 | 1143486 | ||
| GDIL1_TS_DEWT_061997.nc | 31-Dec-2024 00:22 | 904074 | ||
| GDIL1_TS_DEWT_061998.nc | 31-Dec-2024 00:23 | 423520 | ||
| GDIL1_TS_DEWT_061999.nc | 31-Dec-2024 00:25 | 428795 | ||
| GDIL1_TS_DEWT_062000.nc | 31-Dec-2024 00:27 | 428808 | ||
| GDIL1_TS_DEWT_062001.nc | 31-Dec-2024 00:29 | 428232 | ||
| GDIL1_TS_DEWT_062002.nc | 31-Dec-2024 00:30 | 429171 | ||
| GDIL1_TS_DEWT_062003.nc | 31-Dec-2024 00:32 | 423957 | ||
| GDIL1_TS_DEWT_062004.nc | 31-Dec-2024 00:34 | 428199 | ||
| GDIL1_TS_DEWT_062005.nc | 31-Dec-2024 00:36 | 598277 | ||
| GDIL1_TS_DEWT_071989.nc | 31-Dec-2024 00:09 | 427170 | ||
| GDIL1_TS_DEWT_071991.nc | 31-Dec-2024 00:12 | 592441 | ||
| GDIL1_TS_DEWT_071994.nc | 31-Dec-2024 00:17 | 905886 | ||
| GDIL1_TS_DEWT_071995.nc | 31-Dec-2024 00:19 | 910788 | ||
| GDIL1_TS_DEWT_071996.nc | 31-Dec-2024 00:20 | 993142 | ||
| GDIL1_TS_DEWT_071997.nc | 31-Dec-2024 00:22 | 917733 | ||
| GDIL1_TS_DEWT_071998.nc | 31-Dec-2024 00:24 | 917834 | ||
| GDIL1_TS_DEWT_071999.nc | 31-Dec-2024 00:25 | 917922 | ||
| GDIL1_TS_DEWT_072000.nc | 31-Dec-2024 00:27 | 420161 | ||
| GDIL1_TS_DEWT_072001.nc | 31-Dec-2024 00:29 | 428803 | ||
| GDIL1_TS_DEWT_072002.nc | 31-Dec-2024 00:30 | 429785 | ||
| GDIL1_TS_DEWT_072003.nc | 31-Dec-2024 00:32 | 429662 | ||
| GDIL1_TS_DEWT_072004.nc | 31-Dec-2024 00:34 | 429615 | ||
| GDIL1_TS_DEWT_072005.nc | 31-Dec-2024 00:36 | 430204 | ||
| GDIL1_TS_DEWT_081989.nc | 31-Dec-2024 00:09 | 429801 | ||
| GDIL1_TS_DEWT_081991.nc | 31-Dec-2024 00:12 | 425865 | ||
| GDIL1_TS_DEWT_081994.nc | 31-Dec-2024 00:17 | 608936 | ||
| GDIL1_TS_DEWT_081995.nc | 31-Dec-2024 00:19 | 606504 | ||
| GDIL1_TS_DEWT_081996.nc | 31-Dec-2024 00:20 | 598012 | ||
| GDIL1_TS_DEWT_081997.nc | 31-Dec-2024 00:22 | 430231 | ||
| GDIL1_TS_DEWT_081998.nc | 31-Dec-2024 00:24 | 915419 | ||
| GDIL1_TS_DEWT_081999.nc | 31-Dec-2024 00:25 | 1143527 | ||
| GDIL1_TS_DEWT_082000.nc | 31-Dec-2024 00:27 | 906472 | ||
| GDIL1_TS_DEWT_082001.nc | 31-Dec-2024 00:29 | 1143731 | ||
| GDIL1_TS_DEWT_082002.nc | 31-Dec-2024 00:31 | 1143891 | ||
| GDIL1_TS_DEWT_082003.nc | 31-Dec-2024 00:32 | 428531 | ||
| GDIL1_TS_DEWT_082004.nc | 31-Dec-2024 00:34 | 429333 | ||
| GDIL1_TS_DEWT_082005.nc | 31-Dec-2024 00:36 | 428996 | ||
| GDIL1_TS_DEWT_091989.nc | 31-Dec-2024 00:09 | 429388 | ||
| GDIL1_TS_DEWT_091990.nc | 31-Dec-2024 00:11 | 428813 | ||
| GDIL1_TS_DEWT_091991.nc | 31-Dec-2024 00:12 | 429639 | ||
| GDIL1_TS_DEWT_091992.nc | 31-Dec-2024 00:14 | 425348 | ||
| GDIL1_TS_DEWT_091994.nc | 31-Dec-2024 00:17 | 608572 | ||
| GDIL1_TS_DEWT_091995.nc | 31-Dec-2024 00:19 | 594369 | ||
| GDIL1_TS_DEWT_091996.nc | 31-Dec-2024 00:20 | 599222 | ||
| GDIL1_TS_DEWT_091997.nc | 31-Dec-2024 00:22 | 606748 | ||
| GDIL1_TS_DEWT_091998.nc | 31-Dec-2024 00:24 | 912686 | ||
| GDIL1_TS_DEWT_091999.nc | 31-Dec-2024 00:25 | 994160 | ||
| GDIL1_TS_DEWT_092000.nc | 31-Dec-2024 00:27 | 915972 | ||
| GDIL1_TS_DEWT_092001.nc | 31-Dec-2024 00:29 | 995449 | ||
| GDIL1_TS_DEWT_092002.nc | 31-Dec-2024 00:31 | 995437 | ||
| GDIL1_TS_DEWT_092003.nc | 31-Dec-2024 00:33 | 995252 | ||
| GDIL1_TS_DEWT_092004.nc | 31-Dec-2024 00:34 | 918096 | ||
| GDIL1_TS_DEWT_092005.nc | 31-Dec-2024 00:36 | 429573 | ||
| GDIL1_TS_DEWT_101989.nc | 31-Dec-2024 00:09 | 429836 | ||
| GDIL1_TS_DEWT_101990.nc | 31-Dec-2024 00:11 | 425773 | ||
| GDIL1_TS_DEWT_101991.nc | 31-Dec-2024 00:12 | 429508 | ||
| GDIL1_TS_DEWT_101992.nc | 31-Dec-2024 00:14 | 429837 | ||
| GDIL1_TS_DEWT_101994.nc | 31-Dec-2024 00:17 | 430037 | ||
| GDIL1_TS_DEWT_101995.nc | 31-Dec-2024 00:19 | 429936 | ||
| GDIL1_TS_DEWT_101996.nc | 31-Dec-2024 00:21 | 429951 | ||
| GDIL1_TS_DEWT_101997.nc | 31-Dec-2024 00:22 | 902021 | ||
| GDIL1_TS_DEWT_101998.nc | 31-Dec-2024 00:24 | 608416 | ||
| GDIL1_TS_DEWT_101999.nc | 31-Dec-2024 00:26 | 608019 | ||
| GDIL1_TS_DEWT_102000.nc | 31-Dec-2024 00:27 | 901980 | ||
| GDIL1_TS_DEWT_102001.nc | 31-Dec-2024 00:29 | 916793 | ||
| GDIL1_TS_DEWT_102002.nc | 31-Dec-2024 00:31 | 1143389 | ||
| GDIL1_TS_DEWT_102003.nc | 31-Dec-2024 00:33 | 1143959 | ||
| GDIL1_TS_DEWT_102004.nc | 31-Dec-2024 00:34 | 1142966 | ||
| GDIL1_TS_DEWT_111989.nc | 31-Dec-2024 00:09 | 1143928 | ||
| GDIL1_TS_DEWT_111990.nc | 31-Dec-2024 00:11 | 1143885 | ||
| GDIL1_TS_DEWT_111991.nc | 31-Dec-2024 00:13 | 1142958 | ||
| GDIL1_TS_DEWT_111992.nc | 31-Dec-2024 00:14 | 429012 | ||
| GDIL1_TS_DEWT_111994.nc | 31-Dec-2024 00:17 | 429081 | ||
| GDIL1_TS_DEWT_111995.nc | 31-Dec-2024 00:19 | 424533 | ||
| GDIL1_TS_DEWT_111996.nc | 31-Dec-2024 00:21 | 429391 | ||
| GDIL1_TS_DEWT_111997.nc | 31-Dec-2024 00:22 | 429496 | ||
| GDIL1_TS_DEWT_111998.nc | 31-Dec-2024 00:24 | 428671 | ||
| GDIL1_TS_DEWT_111999.nc | 31-Dec-2024 00:26 | 429732 | ||
| GDIL1_TS_DEWT_112000.nc | 31-Dec-2024 00:28 | 429364 | ||
| GDIL1_TS_DEWT_112001.nc | 31-Dec-2024 00:29 | 607722 | ||
| GDIL1_TS_DEWT_112002.nc | 31-Dec-2024 00:31 | 607232 | ||
| GDIL1_TS_DEWT_112003.nc | 31-Dec-2024 00:33 | 603714 | ||
| GDIL1_TS_DEWT_112004.nc | 31-Dec-2024 00:35 | 602479 | ||
| GDIL1_TS_DEWT_121990.nc | 31-Dec-2024 00:11 | 995622 | ||
| GDIL1_TS_DEWT_121991.nc | 31-Dec-2024 00:13 | 994516 | ||
| GDIL1_TS_DEWT_121994.nc | 31-Dec-2024 00:18 | 995087 | ||
| GDIL1_TS_DEWT_121995.nc | 31-Dec-2024 00:19 | 995410 | ||
| GDIL1_TS_DEWT_121996.nc | 31-Dec-2024 00:21 | 995453 | ||
| GDIL1_TS_DEWT_121997.nc | 31-Dec-2024 00:23 | 995302 | ||
| GDIL1_TS_DEWT_121998.nc | 31-Dec-2024 00:24 | 995195 | ||
| GDIL1_TS_DEWT_121999.nc | 31-Dec-2024 00:26 | 427786 | ||
| GDIL1_TS_DEWT_122000.nc | 31-Dec-2024 00:28 | 429192 | ||
| GDIL1_TS_DEWT_122001.nc | 31-Dec-2024 00:30 | 424670 | ||
| GDIL1_TS_DEWT_122002.nc | 31-Dec-2024 00:31 | 429836 | ||
| GDIL1_TS_DEWT_122003.nc | 31-Dec-2024 00:33 | 429611 | ||
| GDIL1_TS_DEWT_122004.nc | 31-Dec-2024 00:35 | 430208 | ||